Flag for Burundi Weather past 2 weeks in Bujumbura, Burundi

Now
70 °F

Clear.


Feels Like: 70 °F
Forecast: 66 / 88 °F
Wind: No wind

Location: Kigoma Airport

Current Time: Sep 18, 2014 at 6:23:38 AM

Latest Report: Sep 18, 2014 at 5:00 AM


Visibility: 10 mi

Pressure: 30.01 "Hg

Humidity: 69%

Dew point: 59 °F

Location of BujumburaLocation

Historic Weather in Bujumbura — Graph

°F

Bujumbura temperature yesterday

Maximum temperature yesterday: 88 °F (at 11:00 AM)
Minimum temperature yesterday: 70 °F (at 6:00 AM)
Average temperature yesterday: 80 °F

Past Weeks' High & Low Weather Summary

 TemperatureHumidityPressure
High90 °F (Sep 14, 12:00 PM)100% (Sep 5, 11:00 PM)30.21 "Hg (Sep 5, 11:00 PM)
Low63 °F (Sep 12, 5:00 AM)23% (Sep 10, 10:00 PM)29.95 "Hg (Sep 17, 3:00 PM)
Average77 °F58%30.08 "Hg
* Reported Sep 2 11:00 PM — Sep 17 11:00 PM, Bujumbura, Weather by CustomWeather, © 2014

Note: Actual official high and low records may vary slightly from our data, if they occured in-between our weather recording intervals... More about our weather records

Advertising

Bujumbura weather history for previous 24 hours

 ConditionsComfort  
Time TempWeatherWind HumidityBarometerVisibility
11:00 PM
Sep 17
73 °FClear.No wind61%30.04 "Hg10 mi
10:00 PM73 °FClear.No wind61%30.04 "Hg10 mi
9:00 PM75 °FClear.No wind57%29.98 "Hg10 mi
8:00 PM77 °FClear.No wind65%30.01 "Hg10 mi
7:00 PM79 °FClear.No wind58%29.98 "Hg10 mi
6:00 PM81 °FClear.No wind51%29.98 "Hg10 mi
5:00 PM84 °FPartly sunny.8 mph43%29.95 "HgN/A
4:00 PM84 °FPartly sunny.12 mph35%29.95 "HgN/A
3:00 PM84 °FPartly sunny.12 mph35%29.95 "HgN/A
1:00 PM88 °FPartly sunny.12 mph38%30.01 "HgN/A
12:00 PM88 °FPartly sunny.12 mph31%30.04 "HgN/A
11:00 AM88 °FSunny.14 mph31%30.09 "Hg10 mi
10:00 AM86 °FScattered clouds.17 mph31%30.09 "HgN/A
9:00 AM82 °FPartly sunny.21 mph32%30.12 "HgN/A
8:00 AM79 °FPartly sunny.14 mph39%30.12 "HgN/A
7:00 AM70 °FPartly sunny.9 mph73%30.09 "HgN/A
6:00 AM70 °FPartly sunny.No wind78%30.07 "HgN/A
Weather by CustomWeather, © 2014

See weather overviewHow to use our weather pages